Bradford Rgnl Information

FAA: BFD - ICAO: KBFD

Bradford Rgnl (Airport) Location

State Pennsylvania
County Mc Kean
City Bradford
Bradford Rgnl (Airport) is 10 miles south of Bradford, PA.
Latitude 41-48-10.6356N
Longitude 078-38-23.8775W
Elevation 2,143ft

Bradford Rgnl METARs

METAR KBFD 121353Z AUTO 03007KT 330V050 10SM CLR 19/09 A3019 RMK AO2 SLP214 T01940094
Altimeter 30.19"
Temperature 19.4°C (66.9°F)
Wind 30° at 7KT
Clouds Skies are clear.
Visibility 10.0mi
Time observed: 2022-08-12T13:53:00Z

Bradford Rgnl (Airport) Details

Status Operational
Activation November 1977
Ownership Public
Usage Public
Chart DETROIT
ATC on-site No
Beacon schedule sunset-sunrise
Beacon color clear green

Bradford Rgnl (Airport) Contacts

Owner BRADFORD REGIONAL ARPT AUTH
Owner address 212 AIRPORT DR SUITE E, LEWIS RUN, PA 16738
Owner phone 814-368-5928
Manager STEVE GANSKY
Manager address 777 AMERICAN DR, BENSALEM, PA 19020
Manager phone 215-990-5300

Bradford Rgnl Radio Frequencies

Bradford Rgnl (Airport) Radio Frequencies

UNICOM 123.075
Common traffic advisory frequency (CTAF) 123.075